| time (UTC) | temp F | wind direction | speed MPH | gust MPH | rain 1hr in | rain 24hr in | rain mn in | humidity % | barometer mb |
| 20260507072726 | 46 | 266 | 3.0 | 7.0 | 0.00 | 0.00 | 0.00 | 31 | 1016.6 |
| 20260507070725 | 46 | 261 | 4.0 | 7.0 | 0.00 | 0.00 | 0.00 | 35 | 1016.6 |
| 20260507064725 | 47 | 111 | 3.0 | 6.0 | 0.00 | 0.00 | 0.00 | 33 | 1016.6 |
| 20260507062725 | 45 | 103 | 3.0 | 8.0 | 0.00 | 0.00 | 0.00 | 34 | 1016.6 |
| 20260507060725 | 44 | 126 | 3.0 | 5.0 | 0.00 | 0.00 | 0.00 | 40 | 1016.5 |
| 20260507054725 | 43 | 87 | 5.0 | 7.0 | 0.00 | 0.00 | 0.00 | 44 | 1016.5 |
| 20260507052725 | 42 | 78 | 4.0 | 6.0 | 0.00 | 0.00 | 0.00 | 47 | 1016.4 |
| 20260507050724 | 40 | 23 | 2.0 | 4.0 | 0.00 | 0.00 | 0.00 | 52 | 1016.6 |
| 20260507044725 | 39 | 45 | 2.0 | 3.0 | 0.00 | 0.00 | 0.00 | 58 | 1016.8 |
| 20260507042724 | 35 | 359 | 1.0 | 2.0 | 0.00 | 0.00 | 0.00 | 69 | 1016.8 |
| 20260507040725 | 32 | 80 | 1.0 | 2.0 | 0.00 | 0.00 | 0.00 | 75 | 1016.9 |
| 20260507032726 | 27 | 0.0 | 1.0 | 0.00 | 0.00 | 0.00 | 82 | 1017.0 | |
| 20260507024724 | 26 | 0.0 | 1.0 | 0.00 | 0.00 | 0.00 | 82 | 1017.1 | |
| 20260507022725 | 24 | 129 | 1.0 | 2.0 | 0.00 | 0.00 | 0.00 | 89 | 1017.0 |
| 20260507020724 | 24 | 105 | 2.0 | 2.0 | 0.00 | 0.00 | 0.00 | 87 | 1016.9 |
| 20260507014725 | 25 | 0.0 | 1.0 | 0.00 | 0.00 | 0.00 | 86 | 1016.7 | |
| 20260507012724 | 24 | 127 | 2.0 | 3.0 | 0.00 | 0.00 | 0.00 | 89 | 1016.6 |
| 20260507010724 | 25 | 141 | 2.0 | 3.0 | 0.00 | 0.00 | 0.00 | 84 | 1016.6 |
| 20260507005050 | 25 | 67 | 2.0 | 3.0 | 0.00 | 0.00 | 0.00 | 84 | 1016.4 |
| 20260507002725 | 25 | 0.0 | 2.0 | 0.00 | 0.00 | 0.00 | 83 | 1016.5 | |
| 20260507000724 | 25 | 0.0 | 1.0 | 0.00 | 0.00 | 0.00 | 79 | 1016.4 | |
| 20260506234724 | 26 | 88 | 1.0 | 1.0 | 0.00 | 0.00 | 0.00 | 81 | 1016.2 |
| 20260506232724 | 27 | 238 | 2.0 | 3.0 | 0.00 | 0.00 | 0.00 | 73 | 1016.1 |
| 20260506230726 | 27 | 219 | 1.0 | 2.0 | 0.00 | 0.00 | 0.00 | 74 | 1016.0 |
| 20260506224724 | 27 | 114 | 2.0 | 2.0 | 0.00 | 0.00 | 0.00 | 80 | 1016.0 |
| 20260506222724 | 27 | 97 | 1.0 | 2.0 | 0.00 | 0.00 | 0.00 | 78 | 1015.8 |
| 20260506220724 | 28 | 107 | 1.0 | 2.0 | 0.00 | 0.00 | 0.00 | 74 | 1015.7 |
| 20260506214724 | 28 | 115 | 1.0 | 2.0 | 0.00 | 0.00 | 0.00 | 72 | 1015.5 |
| 20260506212724 | 29 | 77 | 2.0 | 3.0 | 0.00 | 0.00 | 0.00 | 72 | 1015.5 |
| 20260506210723 | 29 | 82 | 2.0 | 3.0 | 0.00 | 0.00 | 0.00 | 72 | 1015.4 |
| 20260506204723 | 30 | 119 | 2.0 | 2.0 | 0.00 | 0.00 | 0.00 | 69 | 1015.3 |
| 20260506202723 | 31 | 105 | 1.0 | 2.0 | 0.00 | 0.00 | 0.00 | 67 | 1015.3 |
| 20260506200724 | 35 | 190 | 1.0 | 1.0 | 0.00 | 0.00 | 0.00 | 53 | 1015.1 |
| 20260506194723 | 36 | 278 | 1.0 | 2.0 | 0.00 | 0.00 | 0.00 | 50 | 1015.0 |
| 20260506192723 | 37 | 256 | 3.0 | 3.0 | 0.00 | 0.00 | 0.00 | 47 | 1015.0 |
| 20260506190723 | 39 | 252 | 3.0 | 4.0 | 0.00 | 0.00 | 0.00 | 43 | 1014.9 |
| 20260506184723 | 40 | 285 | 4.0 | 6.0 | 0.00 | 0.00 | 0.00 | 41 | 1014.7 |
| 20260506182724 | 44 | 280 | 5.0 | 7.0 | 0.00 | 0.00 | 0.00 | 32 | 1014.5 |
| 20260506180723 | 44 | 286 | 6.0 | 8.0 | 0.00 | 0.00 | 0.00 | 30 | 1014.3 |
| 20260506174723 | 45 | 270 | 7.0 | 9.0 | 0.00 | 0.00 | 0.00 | 29 | 1014.1 |
| 20260506172722 | 46 | 280 | 8.0 | 11.0 | 0.00 | 0.00 | 0.00 | 28 | 1014.0 |
| 20260506170723 | 46 | 284 | 9.0 | 12.0 | 0.00 | 0.00 | 0.00 | 26 | 1013.9 |
| 20260506164722 | 47 | 286 | 9.0 | 13.0 | 0.00 | 0.00 | 0.00 | 27 | 1013.7 |
| 20260506162723 | 47 | 294 | 9.0 | 14.0 | 0.00 | 0.00 | 0.00 | 27 | 1013.7 |
| 20260506154723 | 48 | 308 | 11.0 | 15.0 | 0.00 | 0.00 | 0.00 | 27 | 1013.6 |
| 20260506152723 | 48 | 289 | 11.0 | 17.0 | 0.00 | 0.00 | 0.00 | 26 | 1013.5 |
| 20260506144722 | 49 | 274 | 13.0 | 19.0 | 0.00 | 0.00 | 0.00 | 27 | 1013.5 |
| 20260506142722 | 49 | 259 | 15.0 | 21.0 | 0.00 | 0.00 | 0.00 | 26 | 1013.4 |
| 20260506140721 | 50 | 254 | 14.0 | 20.0 | 0.00 | 0.00 | 0.00 | 25 | 1013.3 |
| 20260506134722 | 50 | 297 | 13.0 | 18.0 | 0.00 | 0.00 | 0.00 | 25 | 1013.4 |
| 20260506132722 | 49 | 271 | 12.0 | 19.0 | 0.00 | 0.00 | 0.00 | 25 | 1013.2 |
| 20260506130721 | 49 | 288 | 12.0 | 18.0 | 0.00 | 0.00 | 0.00 | 25 | 1013.2 |
| 20260506124721 | 49 | 266 | 13.0 | 21.0 | 0.00 | 0.00 | 0.00 | 24 | 1013.0 |
| 20260506122722 | 50 | 267 | 14.0 | 23.0 | 0.00 | 0.00 | 0.00 | 31 | 1013.0 |
| 20260506120722 | 49 | 282 | 13.0 | 19.0 | 0.00 | 0.00 | 0.00 | 26 | 1013.0 |
| 20260506115048 | 49 | 293 | 15.0 | 23.0 | 0.00 | 0.00 | 0.00 | 25 | 1012.9 |
| 20260506112722 | 48 | 258 | 18.0 | 25.0 | 0.00 | 0.00 | 0.00 | 27 | 1012.6 |
| 20260506110722 | 48 | 259 | 19.0 | 26.0 | 0.00 | 0.00 | 0.00 | 28 | 1012.6 |
| 20260506104723 | 49 | 248 | 17.0 | 26.0 | 0.00 | 0.00 | 0.00 | 28 | 1012.4 |
| 20260506102723 | 48 | 266 | 16.0 | 25.0 | 0.00 | 0.00 | 0.00 | 29 | 1012.5 |
| 20260506100723 | 49 | 268 | 16.0 | 22.0 | 0.00 | 0.00 | 0.00 | 26 | 1012.4 |
| 20260506094723 | 48 | 264 | 19.0 | 28.0 | 0.00 | 0.00 | 0.00 | 26 | 1012.2 |
| 20260506092722 | 49 | 259 | 18.0 | 28.0 | 0.00 | 0.00 | 0.00 | 28 | 1012.1 |
| 20260506090722 | 47 | 263 | 17.0 | 22.0 | 0.00 | 0.00 | 0.00 | 30 | 1012.1 |
| 20260506084723 | 47 | 262 | 15.0 | 22.0 | 0.00 | 0.00 | 0.00 | 33 | 1012.0 |
| 20260506082723 | 45 | 255 | 17.0 | 25.0 | 0.00 | 0.00 | 0.00 | 35 | 1011.9 |
| 20260506080722 | 45 | 253 | 17.0 | 24.0 | 0.00 | 0.00 | 0.00 | 35 | 1011.7 |